Wind_Speed
3 3 3 2 2 2 3 4 5 6 6 6 7 8 9 10 10 10 10 10 10 10 10 10 11 11 11 11 12 12 13 13 14 15 15 16 16 17 17 17 18 18 18 18 18 19 19 19 19
2 2 2 2 2 2 2 3 4 4 4 4 4 5 6 7 9 10 10 10 9 9 10 10 10 11 11 11 12 12 12 13 14 14 15 16 16 17 17 17 18 18 18 19 19 19 19 19 19
1 1 1 1 2 1 2 3 3 3 3 2 3 3 3 5 6 8 9 9 9 9 9 10 10 10 10 11 11 12 12 13 14 14 15 16 16 17 17 17 18 18 18 18 19 19 19 19 19
1 1 1 0 0 1 2 3 3 3 2 2 1 2 2 3 4 6 7 8 8 8 9 9 9 9 10 11 11 12 13 13 14 15 15 16 17 17 18 18 18 18 18 19 19 20 20 19 19
3 3 3 2 2 2 2 3 2 2 2 2 1 2 3 3 4 5 6 7 7 7 8 8 9 10 10 11 12 13 14 14 15 16 16 17 17 18 19 19 19 19 20 20 20 20 20 20 20
6 5 5 5 4 4 4 4 3 3 3 3 3 4 5 5 4 5 6 8 8 8 9 10 11 11 12 13 14 15 15 16 17 17 18 18 19 19 20 20 20 21 21 21 21 21 21 21 21
8 8 8 7 6 6 6 6 6 5 5 6 6 6 7 7 7 6 7 9 10 10 10 11 12 13 14 15 16 16 17 18 18 19 19 20 20 21 21 22 22 22 23 23 23 23 23 23 23
11 11 10 10 9 8 8 8 8 8 8 8 8 8 9 10 10 9 9 10 12 13 13 13 14 15 16 17 17 18 19 19 20 20 21 22 22 23 23 24 24 25 25 25 25 26 26 25 25
14 13 13 12 11 11 11 10 10 11 11 11 11 11 11 12 12 12 12 12 14 15 16 16 17 18 18 19 19 19 20 20 21 22 22 23 24 24 25 25 26 26 27 27 27 28 28 28 28
16 16 15 14 14 13 13 13 13 13 13 13 13 13 13 14 14 14 14 14 15 17 18 18 19 19 20 20 20 21 21 21 22 22 23 24 25 25 26 26 27 28 28 29 29 30 30 30 31
18 18 18 16 16 16 16 15 15 15 16 16 16 16 16 16 16 17 17 17 17 18 19 20 20 20 20 21 21 21 22 22 22 23 23 24 24 25 25 26 27 28 28 29 30 31 31 32 32
21 21 20 19 19 18 18 17 17 17 19 18 18 18 18 19 19 19 19 19 19 19 20 21 22 22 21 21 21 22 22 22 22 23 23 24 24 25 26 27 28 28 29 30 30 31 32 32 33
24 24 23 22 22 21 21 20 18 19 20 20 20 20 20 20 20 20 20 20 20 20 20 21 22 22 22 22 22 22 22 22 23 23 24 24 25 26 27 28 29 29 30 30 31 32 32 33 34
27 27 25 25 24 24 23 22 21 22 22 21 22 21 21 21 21 21 21 21 21 21 20 20 21 22 22 22 22 22 22 23 23 24 25 25 26 27 28 29 30 31 31 32 32 33 33 34 34
30 29 28 28 27 26 25 24 23 23 23 23 23 22 22 22 22 22 21 21 22 21 21 21 21 22 22 22 22 22 23 24 25 26 27 28 28 29 30 30 31 32 32 33 33 34 34 34 35
33 32 31 31 30 29 27 26 26 25 25 24 24 24 24 24 23 23 22 22 22 22 22 21 22 22 22 22 23 23 25 26 27 28 29 30 30 31 32 32 33 33 33 34 34 34 34 35 35
35 35 34 33 31 31 30 28 28 28 27 26 25 25 25 25 24 23 23 22 22 22 22 22 22 22 22 23 24 25 26 27 28 29 30 31 32 32 32 33 33 33 34 34 34 35 35 36 36
38 37 35 34 33 33 31 29 30 29 28 26 25 25 25 25 24 23 23 22 22 22 22 22 22 23 23 24 25 26 27 28 29 30 31 31 32 32 33 33 33 33 34 34 34 34 34 35 36
40 38 35 35 36 35 33 31 31 30 28 27 26 25 25 25 24 24 23 23 23 23 23 23 23 23 24 25 26 27 28 29 29 30 31 32 32 33 33 33 33 33 33 33 34 34 35 36 36
40 38 37 36 37 36 34 32 31 30 29 28 26 25 26 26 25 24 24 24 24 24 24 24 24 24 25 26 27 28 28 29 30 31 32 32 33 33 33 33 33 33 34 35 35 36 36 38 39
39 38 36 36 38 38 36 33 31 30 29 28 26 26 26 26 25 25 24 24 24 25 25 25 25 26 26 27 28 29 29 30 31 32 33 33 34 34 34 34 34 35 36 37 38 38 39 39 40
38 37 37 37 38 37 37 34 28 30 28 28 27 26 26 26 26 25 25 25 25 26 26 26 26 27 28 28 29 30 31 32 33 33 34 35 35 35 35 36 36 37 37 38 39 40 41 41 43
37 37 38 38 39 38 36 36 27 28 27 28 27 26 26 26 26 26 26 26 26 27 27 27 28 28 29 30 31 31 32 33 34 35 36 36 37 37 37 38 39 39 40 41 41 43 44 45 46
38 37 38 39 40 39 32 36 30 26 27 28 27 26 26 27 26 27 27 26 27 27 28 28 29 30 30 31 32 33 34 35 36 36 37 38 38 39 39 40 41 41 42 43 44 46 47 49 50
37 37 38 39 39 37 33 36 31 26 27 28 27 26 26 26 26 26 26 26 27 28 29 29 30 31 32 32 33 34 35 36 37 38 39 39 40 40 41 42 43 44 45 46 47 49 50 51 53
35 37 38 38 39 37 35 35 30 26 26 27 27 26 26 25 26 26 27 27 27 28 29 30 31 32 33 34 35 36 37 38 39 40 40 41 41 42 43 44 45 46 47 49 50 51 52 53 55
37 37 36 38 39 38 37 35 30 26 26 26 26 26 25 25 25 26 26 27 28 29 30 31 32 33 34 35 36 37 39 40 41 42 42 43 43 44 45 46 47 48 49 50 51 52 54 56 57
37 35 36 38 38 37 36 33 29 26 26 26 26 26 26 25 25 26 27 28 29 30 31 32 33 35 36 37 38 39 40 41 42 43 44 45 45 46 47 48 48 49 51 52 53 55 56 57 59
35 35 36 37 38 37 36 31 28 26 25 25 25 25 25 25 25 26 28 29 30 31 32 33 35 36 37 38 40 41 42 43 44 45 46 46 47 48 49 49 50 51 53 54 56 57 58 59 60
36 36 36 37 37 36 35 32 27 27 26 26 26 26 26 26 26 27 29 30 31 32 33 34 36 37 39 40 42 43 44 45 46 47 47 48 49 49 50 51 52 53 55 56 57 58 59 60 62
Wind_Direction
90 100 113 129 157 171 186 199 199 198 203 211 217 222 225 226 230 233 236 238 240 244 248 253 257 261 265 268 272 275 276 278 279 280 281 282 283 283 282 281 280 279 277 276 275 275 274 273 273
100 93 101 103 102 106 141 167 172 175 186 196 204 213 219 224 231 235 238 240 241 246 250 254 259 262 265 268 272 275 277 278 279 280 282 282 283 283 282 281 280 279 277 276 275 274 274 273 272
121 98 85 86 84 98 161 169 157 152 158 164 174 189 212 221 226 235 243 243 243 246 251 257 261 263 265 268 271 274 277 279 281 282 282 282 283 283 282 280 279 278 278 277 276 275 274 273 271
208 223 241 263 111 175 206 195 182 167 171 162 158 169 199 221 224 237 245 247 247 248 254 260 265 267 269 271 273 276 278 280 281 282 282 282 282 282 281 280 278 277 277 277 276 275 274 272 270
235 245 257 260 258 251 247 245 231 212 221 224 224 235 237 238 235 240 251 258 259 258 262 266 269 271 272 274 275 276 277 278 279 280 280 281 280 280 279 279 277 277 276 276 275 274 273 271 269
241 248 256 265 269 271 266 267 265 256 254 257 250 254 260 262 257 254 263 269 272 272 272 273 274 274 275 275 275 276 276 277 277 278 278 279 279 279 279 278 277 276 275 274 274 273 272 270 269
246 249 252 260 266 271 272 273 271 268 260 261 261 261 265 272 272 270 271 276 280 281 280 279 279 279 279 278 278 278 278 278 278 278 277 277 277 278 278 277 277 276 275 274 273 272 271 270 269
247 251 254 259 265 270 272 272 270 268 266 266 266 265 268 271 273 273 273 276 280 283 284 283 284 284 284 283 282 281 280 280 279 279 278 277 277 277 277 276 276 275 274 273 272 272 271 270 269
250 253 256 260 264 267 269 270 269 268 269 269 268 266 265 267 270 272 273 274 276 280 282 283 284 285 285 285 284 283 283 282 281 280 279 278 277 277 277 276 276 275 274 273 272 271 270 270 269
251 253 256 259 262 264 267 270 272 273 273 271 270 270 270 269 271 273 272 272 274 276 278 280 282 284 285 285 285 284 284 283 282 282 281 280 279 279 278 277 277 276 275 274 273 273 271 270 269
250 253 257 258 260 263 265 267 269 271 271 271 273 274 273 273 275 275 274 273 273 275 278 280 282 283 284 285 285 284 284 284 283 283 283 282 282 281 280 279 278 277 276 275 274 273 273 272 271
250 253 256 258 260 262 264 267 268 269 269 271 272 273 273 274 274 275 276 276 275 275 277 280 282 283 284 284 284 284 284 284 284 284 284 284 284 284 283 282 280 279 277 276 275 274 273 273 272
249 252 255 257 259 260 263 266 268 268 269 271 273 272 272 271 272 274 276 277 277 276 277 279 281 282 283 283 283 284 284 285 285 285 286 286 286 285 285 283 282 281 280 278 277 276 274 273 273
248 251 254 257 258 259 261 263 266 268 270 272 273 273 272 271 271 271 273 275 276 276 276 277 279 281 282 282 283 283 284 286 287 287 287 287 286 286 285 284 283 282 281 280 278 277 276 275 274
249 251 253 255 256 258 260 262 264 266 270 271 272 272 272 272 271 271 271 272 274 275 275 275 277 278 279 280 281 283 285 286 287 287 287 287 287 287 286 284 283 282 281 280 279 278 277 276 275
249 251 252 255 256 258 260 262 264 266 268 270 271 271 272 271 270 270 270 270 271 273 273 274 275 276 277 278 280 282 284 286 287 287 288 288 288 287 286 285 283 282 281 280 279 278 277 276 275
250 250 251 254 256 258 260 261 264 266 267 269 270 270 270 269 267 267 268 268 269 270 272 273 274 275 277 278 280 283 284 286 287 288 289 289 288 287 286 285 284 282 281 280 279 278 277 276 275
249 250 251 253 254 255 258 260 262 264 266 267 267 267 267 265 264 265 265 265 266 268 270 272 274 275 277 279 281 283 285 286 287 289 290 289 289 288 287 285 283 282 281 280 279 279 278 277 276
248 249 251 252 254 255 256 259 261 262 264 265 265 264 263 262 262 263 263 263 264 267 269 271 273 276 278 281 283 284 285 287 288 289 290 290 289 288 287 286 284 282 281 281 280 280 279 278 277
248 249 250 251 254 255 255 257 260 262 262 263 263 262 261 261 261 260 261 261 262 264 267 270 273 276 279 281 283 284 286 287 288 290 291 291 290 288 287 285 283 282 282 282 281 281 281 280 279
246 247 248 251 254 257 256 255 257 260 261 261 261 259 259 259 259 259 259 259 261 263 265 269 272 276 279 281 283 285 286 288 289 290 291 291 290 289 287 285 283 283 283 283 282 282 282 282 282
246 247 249 250 253 256 258 256 253 258 260 260 258 257 256 257 257 257 258 259 261 263 266 269 273 276 279 282 284 286 287 289 291 292 292 291 290 289 286 284 283 283 283 283 283 283 283 283 283
245 247 249 250 252 254 257 259 249 255 259 259 258 257 256 257 257 257 257 259 261 263 267 270 273 276 279 282 284 286 288 289 291 292 293 292 290 288 286 285 284 284 284 284 284 284 284 284 284
245 246 248 250 252 254 254 259 255 253 256 258 258 258 258 258 257 257 258 259 261 264 267 271 274 276 279 282 284 287 289 290 291 293 293 292 291 289 287 286 285 285 285 285 285 285 285 286 286
244 245 247 249 251 254 252 256 260 257 256 256 258 259 259 259 258 257 258 259 262 265 268 272 275 277 280 283 285 288 289 291 292 293 294 293 292 290 288 287 286 286 286 286 286 287 287 287 288
242 243 245 249 251 253 253 255 258 259 257 256 257 258 259 258 258 258 259 261 263 266 270 273 275 278 281 284 286 288 290 291 292 293 294 293 292 291 289 288 287 287 287 287 287 288 288 289 290
239 241 244 248 251 253 253 256 257 257 256 256 257 258 258 258 259 259 260 262 265 268 270 274 277 279 282 285 287 289 290 291 293 293 294 293 293 291 290 289 289 288 288 288 289 289 290 290 291
239 240 242 246 251 253 254 255 258 256 256 257 258 259 259 260 260 261 262 264 266 269 272 275 278 280 283 285 287 289 291 292 293 294 294 294 293 292 291 290 290 289 289 289 290 290 291 292 292
240 240 242 246 250 252 255 257 259 259 257 257 257 257 259 260 262 263 264 266 269 272 274 276 279 282 284 286 288 290 291 292 293 294 294 293 293 293 292 292 291 291 291 291 291 292 292 293 293
238 239 242 244 249 252 255 257 258 259 259 259 259 259 260 262 264 265 267 269 271 274 276 278 281 283 285 287 289 290 292 293 294 294 294 294 293 293 293 292 292 292 292 292 293 293 294 294 295
Height
5871 5871 5871 5872 5873 5873 5872 5873 5873 5873 5873 5874 5875 5876 5877 5878 5879 5881 5880 5879 5880 5880 5880 5881 5881 5881 5881 5881 5881 5881 5881 5881 5881 5881 5881 5880 5880 5879 5879 5878 5878 5877 5877 5876 5876 5875 5874 5874 5874
5872 5872 5872 5872 5872 5872 5873 5873 5872 5872 5873 5873 5874 5874 5875 5876 5876 5877 5877 5877 5878 5878 5878 5879 5879 5879 5879 5879 5879 5879 5879 5879 5878 5878 5878 5877 5877 5876 5876 5875 5875 5874 5873 5872 5872 5871 5871 5870 5870
5872 5872 5873 5873 5872 5873 5873 5873 5872 5872 5872 5873 5873 5874 5874 5875 5875 5875 5875 5875 5876 5876 5876 5876 5876 5876 5876 5876 5876 5876 5876 5876 5876 5875 5875 5874 5874 5873 5873 5872 5871 5870 5869 5869 5868 5867 5867 5866 5866
5872 5873 5873 5873 5872 5873 5873 5872 5872 5871 5872 5872 5873 5873 5873 5874 5874 5874 5873 5873 5874 5874 5874 5874 5874 5874 5874 5874 5874 5874 5874 5873 5873 5872 5872 5871 5870 5870 5869 5868 5868 5867 5866 5865 5864 5863 5863 5862 5861
5872 5872 5873 5872 5872 5872 5872 5872 5871 5871 5871 5871 5872 5872 5872 5873 5873 5873 5872 5872 5872 5872 5872 5872 5872 5872 5872 5872 5872 5871 5871 5870 5870 5869 5868 5868 5867 5866 5865 5864 5864 5863 5862 5861 5860 5859 5859 5858 5857
5871 5871 5872 5871 5871 5872 5872 5871 5871 5870 5870 5870 5871 5871 5871 5871 5871 5871 5871 5870 5870 5870 5870 5870 5870 5869 5869 5869 5869 5868 5868 5867 5867 5866 5865 5864 5863 5862 5861 5860 5859 5859 5858 5857 5856 5855 5855 5854 5853
5870 5870 5870 5870 5870 5871 5871 5870 5869 5869 5869 5869 5869 5869 5869 5869 5869 5870 5869 5868 5868 5867 5868 5867 5867 5867 5866 5866 5865 5865 5864 5864 5863 5862 5861 5860 5859 5858 5857 5856 5855 5854 5853 5852 5852 5851 5850 5849 5849
5868 5868 5868 5868 5868 5869 5869 5868 5868 5867 5867 5867 5867 5867 5867 5867 5867 5867 5867 5867 5865 5865 5865 5864 5864 5864 5863 5862 5862 5861 5861 5860 5859 5858 5857 5856 5855 5854 5853 5852 5851 5849 5849 5848 5847 5846 5845 5844 5844
5865 5867 5865 5866 5866 5867 5867 5866 5866 5865 5865 5865 5864 5865 5865 5864 5864 5864 5865 5865 5863 5862 5862 5861 5861 5860 5859 5859 5858 5857 5856 5855 5855 5854 5853 5852 5850 5849 5848 5847 5846 5844 5843 5842 5842 5841 5840 5839 5838
5862 5863 5863 5863 5864 5864 5864 5863 5863 5863 5862 5862 5861 5861 5861 5861 5861 5861 5862 5861 5860 5859 5858 5858 5857 5856 5855 5855 5854 5853 5852 5851 5850 5849 5848 5847 5845 5844 5843 5842 5840 5839 5838 5837 5836 5835 5834 5833 5832
5858 5859 5859 5860 5860 5860 5860 5860 5860 5859 5859 5858 5858 5858 5857 5857 5857 5857 5857 5857 5857 5856 5854 5853 5853 5852 5851 5850 5849 5848 5847 5846 5845 5844 5843 5842 5840 5839 5838 5836 5835 5834 5832 5831 5830 5829 5828 5827 5826
5854 5855 5855 5856 5856 5856 5856 5856 5856 5856 5855 5855 5855 5854 5853 5853 5853 5852 5852 5852 5852 5851 5850 5849 5848 5847 5847 5846 5845 5844 5843 5842 5841 5839 5838 5837 5835 5834 5832 5831 5829 5828 5826 5825 5824 5822 5821 5820 5819
5850 5850 5851 5851 5851 5851 5852 5852 5852 5851 5851 5850 5850 5850 5849 5849 5848 5848 5847 5847 5846 5846 5846 5844 5843 5842 5842 5841 5840 5839 5838 5837 5836 5834 5833 5832 5830 5828 5826 5825 5823 5821 5820 5818 5817 5816 5814 5813 5812
5844 5845 5846 5846 5846 5846 5847 5847 5847 5846 5846 5846 5845 5845 5845 5844 5844 5843 5843 5842 5841 5841 5841 5840 5839 5838 5837 5836 5835 5834 5833 5832 5831 5829 5828 5826 5825 5823 5821 5819 5817 5815 5813 5812 5810 5809 5807 5806 5804
5838 5839 5840 5840 5841 5841 5842 5843 5842 5841 5841 5841 5841 5840 5839 5839 5838 5838 5838 5837 5836 5836 5836 5835 5834 5833 5833 5831 5830 5829 5828 5827 5825 5824 5822 5821 5819 5817 5815 5813 5811 5809 5807 5805 5803 5801 5800 5798 5797
5831 5833 5834 5834 5835 5835 5838 5838 5837 5836 5836 5836 5835 5835 5834 5833 5833 5832 5832 5832 5831 5831 5831 5830 5830 5829 5828 5827 5826 5824 5823 5822 5820 5818 5816 5814 5812 5810 5808 5806 5804 5802 5800 5798 5796 5794 5792 5790 5789
5824 5826 5827 5828 5829 5829 5830 5832 5830 5830 5830 5830 5830 5829 5828 5828 5827 5827 5827 5826 5826 5825 5825 5825 5824 5823 5823 5822 5820 5819 5817 5816 5814 5812 5810 5808 5805 5803 5801 5798 5796 5794 5792 5790 5788 5786 5784 5783 5781
5817 5818 5820 5821 5822 5822 5823 5825 5824 5824 5824 5824 5824 5823 5822 5822 5822 5821 5821 5821 5820 5820 5819 5819 5818 5818 5817 5816 5815 5813 5811 5810 5807 5805 5803 5801 5798 5796 5793 5791 5789 5786 5784 5782 5780 5778 5776 5774 5772
5808 5810 5813 5814 5813 5815 5816 5818 5818 5817 5818 5818 5817 5817 5816 5816 5816 5816 5815 5815 5814 5814 5814 5813 5813 5812 5811 5810 5808 5807 5805 5803 5801 5798 5796 5793 5791 5788 5786 5783 5781 5779 5776 5774 5772 5770 5768 5765 5764
5800 5803 5805 5806 5805 5807 5809 5811 5811 5811 5811 5811 5811 5811 5810 5810 5810 5810 5809 5809 5809 5808 5808 5808 5807 5806 5805 5804 5802 5801 5798 5796 5794 5791 5789 5786 5783 5780 5778 5775 5773 5771 5768 5766 5764 5762 5759 5756 5754
5792 5795 5797 5798 5797 5798 5800 5804 5804 5804 5804 5805 5805 5804 5804 5804 5803 5803 5803 5803 5803 5802 5802 5802 5801 5800 5799 5797 5796 5794 5791 5789 5787 5784 5781 5778 5775 5773 5770 5767 5765 5762 5760 5757 5755 5752 5750 5747 5744
5785 5787 5788 5789 5789 5791 5792 5795 5799 5797 5797 5797 5798 5798 5797 5797 5797 5797 5797 5797 5796 5796 5796 5795 5794 5793 5792 5790 5788 5786 5784 5782 5779 5776 5773 5770 5767 5764 5762 5759 5756 5754 5751 5748 5745 5743 5740 5738 5735
5777 5778 5780 5781 5781 5783 5784 5785 5792 5790 5790 5790 5790 5791 5791 5790 5790 5790 5790 5790 5790 5790 5789 5788 5787 5786 5785 5783 5781 5779 5777 5774 5771 5768 5765 5762 5759 5756 5753 5750 5747 5744 5742 5739 5736 5733 5730 5727 5724
5768 5770 5771 5772 5772 5775 5779 5776 5782 5784 5783 5783 5783 5784 5783 5783 5784 5783 5784 5784 5783 5783 5782 5781 5780 5779 5777 5775 5773 5771 5768 5766 5763 5760 5757 5754 5750 5747 5744 5741 5737 5734 5731 5728 5725 5722 5718 5715 5711
5760 5762 5763 5763 5764 5768 5771 5769 5774 5777 5776 5776 5776 5777 5776 5776 5776 5777 5777 5777 5776 5776 5775 5774 5773 5771 5769 5767 5765 5763 5760 5757 5754 5751 5748 5744 5741 5737 5734 5731 5727 5724 5721 5717 5714 5710 5707 5703 5699
5752 5754 5756 5757 5758 5760 5761 5762 5768 5769 5768 5768 5769 5769 5769 5769 5770 5770 5770 5769 5769 5768 5767 5766 5765 5763 5761 5759 5756 5754 5751 5748 5745 5742 5738 5735 5731 5727 5724 5720 5717 5713 5709 5706 5702 5698 5694 5690 5686
5742 5745 5748 5749 5749 5751 5753 5755 5759 5761 5761 5761 5762 5762 5762 5762 5762 5762 5762 5762 5761 5760 5759 5758 5756 5755 5752 5750 5747 5745 5741 5738 5735 5731 5728 5724 5721 5717 5713 5709 5705 5701 5698 5694 5690 5686 5681 5677 5672
5735 5738 5739 5739 5741 5743 5745 5748 5752 5754 5754 5754 5755 5754 5755 5755 5755 5755 5754 5754 5753 5752 5751 5750 5748 5746 5743 5741 5738 5735 5732 5728 5725 5721 5717 5714 5710 5706 5702 5698 5694 5689 5685 5681 5677 5672 5668 5663 5658
5728 5730 5731 5732 5734 5736 5737 5743 5745 5745 5746 5747 5747 5747 5747 5748 5748 5747 5747 5746 5745 5744 5743 5741 5739 5736 5734 5731 5728 5725 5722 5718 5714 5710 5706 5702 5698 5694 5690 5686 5681 5677 5672 5668 5663 5659 5654 5648 5643
5718 5721 5723 5726 5727 5728 5730 5737 5736 5737 5738 5738 5739 5739 5740 5740 5740 5739 5739 5738 5736 5735 5734 5732 5730 5727 5724 5721 5718 5715 5711 5707 5703 5699 5695 5691 5686 5682 5678 5673 5669 5664 5659 5654 5649 5644 5639 5633 5627